Weather History for Big Piney, WY

Change the Weather History Date:

Monday, November 5, 2012

  Actual Average Record
Temperature  
Mean Temperature 43 °F 30 °F  
Max Temperature 58 °F 44 °F 64 °F (1999)
Min Temperature 28 °F 15 °F -7 °F (2003)
Degree Days  
Heating Degree Days 22 36  
Month to date heating degree days 130 172  
Since 1 July heating degree days 1260 1752  
Cooling Degree Days 0 0  
Month to date cooling degree days 0 0  
Year to date cooling degree days 67 35  
Moisture  
Dew Point 29 °F    
Average Humidity 57    
Maximum Humidity 78    
Minimum Humidity 36    
Precipitation  
Precipitation 0.00 in 0.01 in 0.30 in (1987)
Month to date precipitation 0.00 0.04  
Year to date precipitation 2.50 6.01  
Sea Level Pressure  
Sea Level Pressure 30.31 in    
Wind  
Wind Speed 10 mph (North)    
Max Wind Speed 20 mph    
Max Gust Speed 29 mph    
Visibility 10 miles    
Events      
T = Trace of Precipitation, MM = Missing Value Source: NWS Daily Summary

Daily Weather History Graph

Daily Weather History Graph

Search for Another Location

Airport:

Trip Planner

Search our weather history database for the weather conditions in past years. The results will help you decide how hot, cold, wet, or windy it might be!

Date:

Astronomy

Nov. 05, 2012 Rise Set
Actual Time 6:59 AM MST 5:07 PM MST
Civil Twilight 6:30 AM MST 5:37 PM MST
Nautical Twilight 5:56 AM MST 6:10 PM MST
Astronomical Twilight 5:23 AM MST 6:43 PM MST
Moon 10:48 PM MST (11/5) 12:21 PM MST (11/5)
Length of Visible Light 11h 07m
Length of Day
10h 07m
Waning Gibbous, 62% of the Moon is Illuminated
Nov 5
Waning Gibbous
Nov 6
Last Quarter
Nov 13
New
Nov 20
First Quarter
Nov 28
Full

Hourly Weather History & Observations

Time (MST) Temp. Windchill Dew Point Humidity Pressure Visibility Wind Dir Wind Speed Gust Speed Precip Events Conditions
12:53 AM 33.1 °F 24.9 °F 27.0 °F 78% 30.32 in 10.0 mi NNW 10.4 mph - N/A   Clear
1:53 AM 35.6 °F 28.0 °F 26.6 °F 70% 30.44 in 10.0 mi North 10.4 mph - N/A   Clear
2:53 AM 33.1 °F - 26.1 °F 75% 30.31 in 10.0 mi Calm Calm - N/A   Clear
3:53 AM 34.0 °F 29.8 °F 26.1 °F 73% 30.30 in 10.0 mi NNE 4.6 mph - N/A   Clear
4:53 AM 37.9 °F 31.5 °F 28.9 °F 70% 30.29 in 10.0 mi North 9.2 mph - N/A   Clear
5:53 AM 35.1 °F - 27.0 °F 72% 30.33 in 10.0 mi Calm Calm - N/A   Clear
6:53 AM 30.0 °F 26.5 °F 25.0 °F 82% 30.36 in 10.0 mi ESE 3.5 mph - N/A   Clear
7:53 AM 35.1 °F 31.0 °F 28.9 °F 78% 30.39 in 10.0 mi ENE 4.6 mph - N/A   Clear
8:53 AM 41.0 °F - 30.9 °F 67% 30.38 in 10.0 mi Calm Calm - N/A   Clear
9:53 AM 43.0 °F 39.5 °F 32.0 °F 65% 30.37 in 10.0 mi SSW 5.8 mph - N/A   Clear
10:53 AM 48.9 °F - 33.1 °F 54% 30.33 in 10.0 mi South 6.9 mph - N/A   Clear
11:53 AM 57.0 °F - 30.9 °F 37% 30.27 in 10.0 mi North 19.6 mph 28.8 mph N/A   Clear
12:53 PM 57.0 °F - 30.9 °F 37% 30.25 in 10.0 mi NNW 18.4 mph 23.0 mph N/A   Clear
1:53 PM 57.0 °F - 30.9 °F 37% 30.22 in 10.0 mi NNW 17.3 mph 24.2 mph N/A   Clear
2:53 PM 55.9 °F - 30.0 °F 37% 30.24 in 10.0 mi NNW 19.6 mph 23.0 mph N/A   Clear
3:53 PM 54.0 °F - 30.0 °F 40% 30.25 in 10.0 mi NNW 18.4 mph 23.0 mph N/A   Clear
4:53 PM 50.0 °F - 30.0 °F 46% 30.25 in 10.0 mi North 12.7 mph - N/A   Clear
5:53 PM 46.0 °F 40.6 °F 30.0 °F 54% 30.28 in 10.0 mi NNW 11.5 mph - N/A   Clear
6:53 PM 46.9 °F - 30.9 °F 54% 30.32 in 10.0 mi North 17.3 mph - N/A   Clear
7:53 PM 44.1 °F 38.6 °F 30.9 °F 60% 30.30 in 10.0 mi NE 10.4 mph 20.7 mph N/A   Clear
8:53 PM 43.0 °F 36.0 °F 32.0 °F 65% 30.30 in 10.0 mi North 13.8 mph - N/A   Clear
9:53 PM 39.0 °F 31.8 °F 30.0 °F 70% 30.30 in 10.0 mi NNW 11.5 mph - N/A   Clear
10:53 PM 37.0 °F 30.4 °F 30.0 °F 76% 30.29 in 10.0 mi North 9.2 mph - N/A   Clear
11:53 PM 34.0 °F 28.0 °F 28.9 °F 82% 30.26 in 10.0 mi Variable 6.9 mph - N/A   Clear